Location: Kellogg
(38.0159°N, 90.0546°W)
Time: 14:34:20
(UTC+00:00)

Tiros 1 despin weight - Visible Passes

Search period start: 13 September 2024 00:00
Search period end: 23 September 2024 00:00
Orbit: 573 x 617 km, 48.2° (Epoch: 12 September)

Date Brightness Start Highest point End Pass type
(mag) Time Alt. Az. Time Alt. Az. Time Alt. Az.
13 Sep ? 08:22:29 12° E 08:22:29 12° E 08:22:52 10° E visible
13 Sep ? 09:59:04 51° W 10:00:04 69° NNW 10:04:37 10° NE visible
14 Sep ? 08:31:15 17° ENE 08:31:15 17° ENE 08:32:24 10° ENE visible
14 Sep ? 10:07:50 34° WNW 10:09:12 45° NNW 10:13:35 10° NE visible
15 Sep ? 08:39:57 22° ENE 08:39:57 22° ENE 08:41:35 10° ENE visible
15 Sep ? 10:16:31 24° WNW 10:18:24 33° NNW 10:22:32 10° NE visible
16 Sep ? 08:48:34 25° NE 08:48:34 25° NE 08:50:33 10° NE visible
16 Sep ? 10:25:08 17° WNW 10:27:36 26° NNW 10:31:28 10° NE visible
17 Sep ? 08:57:06 27° NNE 08:57:06 27° NNE 08:59:25 10° NE visible
17 Sep ? 10:33:41 12° NW 10:36:51 23° N 10:40:30 10° NE visible
18 Sep ? 09:05:36 27° NNE 09:05:36 27° NNE 09:08:14 10° NE visible
18 Sep ? 10:42:29 10° NW 10:46:04 22° N 10:49:38 10° NE visible
19 Sep ? 09:14:04 25° N 09:14:04 25° N 09:17:03 10° NE visible
19 Sep ? 10:51:36 10° NW 10:55:14 23° N 10:58:54 10° ENE visible
20 Sep ? 09:22:29 23° N 09:22:29 23° N 09:25:55 10° NE visible
20 Sep ? 11:00:30 10° NW 11:04:21 26° NNE 11:08:12 10° ENE visible
21 Sep ? 09:30:54 22° N 09:31:21 22° N 09:34:55 10° NE visible
21 Sep ? 11:09:15 10° NW 11:13:22 33° NNE 11:17:28 10° E visible
22 Sep ? 09:39:19 21° NNW 09:40:24 23° N 09:44:01 10° ENE visible
22 Sep ? 11:17:53 10° NW 11:22:15 44° NNE 11:26:36 10° E visible
